Lapse_Rate
4.1 4.0 4.7 5.8 6.0 6.0 5.9 6.9 6.9 6.2 6.1 6.4 6.0 5.8 5.8 6.1 6.0 6.4 5.4 5.7 5.6 6.1 6.0 5.8 5.5 6.6 6.6 7.1 6.7 6.5 6.5 6.2 5.9 6.0 6.3 5.8 6.0 5.9 5.8 5.7 5.7 5.6 6.0
4.4 4.5 4.7 5.3 5.3 5.9 6.7 6.6 7.1 6.7 7.0 7.3 6.1 6.1 5.9 5.4 5.1 5.8 5.5 5.1 5.3 6.0 5.1 5.1 5.0 6.4 6.6 6.7 6.9 6.7 6.7 6.5 5.7 6.2 6.1 6.2 5.4 6.1 6.1 5.5 5.6 5.6 5.7
4.8 5.0 4.8 5.0 5.6 5.9 5.8 6.6 6.6 6.9 7.1 7.2 6.4 5.9 6.0 6.0 5.9 5.9 5.8 5.7 5.3 4.9 5.6 5.4 5.5 5.8 6.3 6.5 6.8 6.6 6.3 6.2 6.1 5.6 6.0 5.9 5.7 5.7 5.7 5.5 5.6 5.4 5.6
4.9 5.0 5.0 4.5 4.6 5.5 5.4 6.8 6.4 6.5 6.5 5.9 6.1 6.4 6.3 6.1 6.1 5.7 5.4 4.9 5.0 5.2 5.3 5.4 5.7 6.1 6.1 6.1 6.1 6.1 5.7 5.5 5.5 5.2 5.0 5.4 5.5 5.7 5.8 5.2 5.8 5.8 5.4
4.9 4.9 4.8 4.7 4.7 4.8 5.3 5.7 5.6 5.7 6.2 6.1 6.4 6.6 6.5 6.2 6.1 6.1 5.8 5.5 5.5 5.6 5.5 6.0 6.3 6.3 6.0 5.6 5.5 5.8 5.8 5.5 5.3 5.2 4.9 5.0 5.1 5.5 5.7 5.5 5.5 5.5 5.9
5.4 5.2 5.1 5.5 5.6 5.1 5.5 5.4 5.8 6.0 5.9 5.7 5.6 5.6 5.5 5.4 5.7 5.5 5.7 5.9 5.8 6.0 5.8 5.7 5.2 5.4 5.5 5.6 5.3 5.4 5.5 5.5 5.0 5.2 5.4 5.7 5.6 5.5 5.3 5.5 5.3 5.6 5.7
5.5 5.3 5.4 5.4 5.4 5.5 5.5 5.6 5.8 5.7 5.9 6.0 6.0 6.0 6.2 6.1 6.0 6.2 5.9 5.9 6.0 5.9 5.8 5.7 5.4 5.4 5.1 4.9 5.1 5.3 5.4 5.2 5.4 5.2 5.4 5.8 5.8 5.6 5.8 5.7 5.7 5.2 5.2
6.0 6.0 5.9 6.1 6.0 6.0 6.0 6.3 6.2 6.0 6.1 6.1 6.1 6.2 6.2 6.2 6.2 6.1 6.1 6.2 6.1 5.9 5.9 6.0 6.0 5.9 5.6 5.7 5.4 5.5 5.3 5.2 5.3 5.2 5.4 5.6 5.7 5.5 5.3 5.5 6.2 5.5 5.3
6.0 6.0 6.1 6.0 6.1 6.2 6.4 6.6 6.9 6.7 6.8 6.9 6.8 6.7 6.7 6.7 6.6 6.6 6.5 6.4 6.5 6.5 6.5 6.5 6.4 6.4 6.3 6.2 6.1 5.9 5.5 5.2 5.0 5.1 5.1 5.3 5.5 5.5 5.4 5.2 5.4 5.5 6.2
5.6 5.7 5.6 5.7 5.8 6.0 6.1 6.1 6.2 6.2 6.3 6.3 6.3 6.4 6.5 6.3 6.4 6.4 6.4 6.4 6.3 6.1 6.0 6.0 6.1 6.2 6.2 6.3 6.3 6.3 6.3 6.2 6.1 5.8 5.3 5.2 5.2 5.3 5.4 5.6 5.7 5.7 5.6
5.5 5.4 5.5 5.6 5.7 5.8 5.8 5.7 5.7 5.7 5.8 5.8 5.9 6.0 6.0 6.0 5.9 6.0 6.2 6.3 6.4 6.4 6.4 6.3 6.2 6.1 6.2 6.2 6.1 6.1 6.2 6.4 6.3 6.2 6.2 6.1 5.9 5.6 5.6 5.6 5.4 5.6 5.8
5.6 5.5 5.6 5.6 5.6 5.6 5.6 5.7 5.8 5.8 5.8 5.7 5.7 5.6 5.7 5.8 5.9 6.0 6.2 6.5 6.6 6.7 6.7 6.8 6.8 6.9 6.9 6.8 6.8 6.7 6.6 6.5 6.4 6.4 6.4 6.2 6.0 5.7 5.3 5.2 5.3 5.5 5.5
5.6 5.7 5.7 5.6 5.6 5.5 5.4 5.4 5.4 5.4 5.5 5.7 5.8 5.9 5.9 6.0 6.0 6.0 6.2 6.2 6.3 6.4 6.5 6.5 6.5 6.4 6.1 5.9 5.9 5.9 5.9 5.8 5.8 5.8 5.7 5.8 5.9 5.9 5.6 5.1 4.8 5.1 5.3
5.5 5.4 5.4 5.4 5.6 5.8 5.8 5.8 5.9 6.0 6.2 6.3 6.4 6.5 6.6 6.8 6.8 6.7 6.6 6.6 6.4 6.2 6.0 5.8 5.5 5.4 5.3 5.0 4.8 4.5 4.2 4.1 4.3 4.4 4.6 4.5 4.6 4.6 4.7 4.7 4.9 4.7 4.3
5.9 5.8 5.8 5.9 6.0 6.1 6.1 6.2 6.4 6.7 6.5 6.4 6.4 6.4 6.5 6.5 6.5 6.5 6.4 6.4 6.3 6.1 5.8 5.3 4.7 4.5 4.1 3.8 3.5 3.3 3.3 3.2 3.1 2.9 2.6 2.7 2.9 3.0 3.1 3.2 3.5 4.0 4.5
5.8 5.7 5.6 5.8 6.0 5.9 5.9 5.9 6.1 6.0 5.9 5.7 5.7 5.6 5.5 5.5 5.3 5.3 5.3 5.2 5.0 4.8 4.6 4.2 4.0 3.8 3.6 3.5 3.4 3.1 2.9 2.6 2.3 2.1 1.9 1.8 1.7 1.8 2.1 2.3 2.4 2.6 3.1
6.0 6.1 6.0 5.8 5.6 5.6 5.6 5.5 5.4 5.3 5.2 5.2 5.0 5.0 5.1 5.0 4.6 4.4 4.0 3.8 3.5 3.3 3.0 2.7 2.5 2.4 2.4 2.2 2.1 1.9 1.9 1.8 1.7 1.7 1.6 1.6 1.5 1.4 1.4 1.6 1.6 1.7 1.8
6.0 5.8 5.7 5.4 5.3 5.3 5.3 5.2 5.1 5.1 5.0 4.9 4.7 4.6 4.3 4.1 3.9 3.7 3.5 3.2 2.9 2.6 2.3 2.2 2.0 1.9 1.8 1.8 1.9 2.1 2.1 2.1 2.0 1.9 1.8 1.8 1.8 1.6 1.6 1.5 1.3 1.4 1.6
5.7 5.6 5.4 5.2 5.1 5.1 5.0 4.8 4.7 4.7 4.6 4.4 4.2 3.9 3.7 3.5 3.4 3.3 2.9 2.6 2.4 2.2 2.1 1.9 1.8 1.7 1.8 2.1 2.2 2.2 2.3 2.6 2.8 3.1 3.1 3.0 2.9 2.9 2.6 2.3 2.1 1.8 1.7
5.8 5.6 5.3 5.1 4.9 4.9 4.7 4.5 4.4 4.3 4.0 3.9 3.6 3.4 3.2 3.0 2.9 2.7 2.6 2.4 2.2 2.0 1.9 1.8 1.9 2.2 2.3 2.7 3.2 3.6 3.9 4.1 4.1 4.0 4.1 4.1 3.9 3.9 3.8 3.7 3.5 3.4 3.2
5.8 5.5 5.3 5.1 4.9 4.6 4.4 4.2 4.1 3.8 3.6 3.3 3.0 2.8 2.7 2.6 2.6 2.4 2.2 2.0 1.8 1.8 1.9 2.1 2.4 3.0 3.6 3.9 4.1 4.2 4.3 4.5 4.7 4.7 4.8 4.7 4.6 4.3 4.1 3.8 3.7 3.8 3.9
5.7 5.4 5.2 4.9 4.6 4.4 4.1 3.9 3.7 3.4 3.1 2.9 2.7 2.6 2.5 2.3 2.2 2.0 1.8 1.8 1.9 1.9 2.2 2.7 3.4 3.8 4.0 4.1 4.2 4.5 4.7 4.9 4.9 5.0 5.1 5.0 4.8 4.7 4.9 4.9 4.8 4.8 4.7
5.5 5.2 4.9 4.6 4.3 4.0 3.8 3.6 3.3 3.0 2.8 2.7 2.6 2.5 2.3 2.1 2.0 1.9 2.0 2.0 2.1 2.6 3.0 3.2 3.5 3.8 4.0 4.2 4.2 4.4 4.8 5.0 5.1 5.3 5.2 5.2 5.1 5.4 5.7 5.7 5.6 5.5 5.4
5.2 4.9 4.7 4.4 4.0 3.8 3.5 3.2 3.0 2.8 2.8 2.7 2.5 2.4 2.2 2.2 2.2 2.2 2.3 2.5 3.0 3.1 3.1 3.2 3.4 3.6 3.9 4.2 4.4 4.4 4.9 5.1 5.3 5.5 5.5 5.3 5.3 5.6 5.9 6.0 5.9 5.7 5.6
5.1 4.7 4.4 4.1 3.9 3.6 3.3 3.1 3.0 2.9 2.8 2.6 2.5 2.4 2.3 2.4 2.5 2.7 3.2 3.4 3.3 3.3 3.3 3.3 3.4 3.5 3.9 4.2 4.3 4.4 4.7 5.0 5.4 5.5 5.4 5.5 5.6 5.8 6.0 6.0 6.0 5.8 5.7
4.8 4.5 4.3 4.0 3.7 3.4 3.3 3.2 3.2 3.0 2.9 2.7 2.6 2.6 2.6 2.6 3.0 3.5 3.6 3.7 3.6 3.6 3.5 3.4 3.4 3.5 3.6 3.9 4.1 4.4 4.7 5.1 5.5 5.5 5.4 5.5 5.6 5.8 5.8 5.9 5.9 5.8 5.7
Wind_Speed
16 18 18 16 18 16 13 12 10 10 13 21 18 17 19 18 17 15 11 11 13 12 15 10 11 14 8 9 7 8 6 7 11 7 8 9 5 5 4 10 19 16 18
15 16 18 18 17 17 13 12 11 15 20 22 18 20 19 18 17 19 18 14 16 15 14 11 14 12 16 11 8 10 7 8 5 7 6 5 6 5 6 14 12 15 13
16 17 16 16 14 14 13 11 18 18 20 24 18 21 19 17 19 20 16 12 14 13 17 18 16 16 14 10 9 8 7 8 6 4 5 2 5 5 8 11 11 11 11
15 17 14 13 14 14 16 18 21 22 22 21 21 19 19 19 19 14 14 15 15 17 16 17 17 17 15 13 10 11 10 9 9 8 5 4 5 8 9 9 8 9 10
14 15 15 14 14 16 18 20 20 21 20 19 20 22 21 21 16 14 17 17 17 18 18 16 17 22 25 20 10 12 12 10 8 8 7 7 7 5 12 9 9 10 11
13 14 13 14 16 17 18 19 19 20 20 19 20 23 22 15 28 27 19 16 17 16 16 15 14 20 21 24 22 20 15 12 11 6 7 8 9 9 8 8 10 10 6
14 13 14 15 15 16 16 17 19 19 17 18 19 19 20 19 30 29 27 14 15 17 15 15 15 13 19 14 18 18 15 19 10 10 10 10 11 12 11 12 9 11 9
13 14 14 14 14 15 16 16 16 14 18 17 19 19 18 18 31 29 25 15 13 14 16 15 15 15 18 15 11 13 11 11 11 9 9 10 9 12 10 11 13 12 11
10 12 13 14 15 15 16 15 14 13 14 15 15 16 18 18 32 30 21 13 12 13 11 13 15 15 24 25 15 15 13 12 16 21 18 18 18 17 16 7 8 9 6
8 7 10 12 13 13 12 13 12 12 13 11 14 15 21 15 28 29 21 12 13 10 10 12 22 19 25 25 13 15 15 14 13 11 10 11 16 15 17 8 6 7 6
8 7 6 8 9 8 8 8 7 7 8 8 9 8 11 14 17 26 25 11 8 8 10 10 10 25 24 24 21 13 15 13 13 10 9 8 9 11 10 8 9 6 6
7 8 7 6 7 6 4 6 7 7 9 10 10 9 7 5 22 24 26 24 20 8 8 7 9 23 23 24 17 24 22 14 9 9 9 9 9 10 11 11 11 7 9
6 7 7 7 6 6 7 7 6 7 8 9 9 9 8 8 6 24 26 24 23 8 8 14 20 19 18 11 21 23 15 11 10 8 11 10 7 8 10 11 11 13 10
9 9 8 7 7 6 4 4 5 5 6 7 8 6 5 7 5 7 8 8 17 10 7 6 8 11 6 8 10 12 8 8 8 9 9 9 8 7 6 7 9 8 6
8 8 6 6 6 6 4 2 3 1 4 3 1 2 5 6 9 15 14 9 8 9 6 5 8 10 10 10 9 9 9 10 11 10 8 10 8 9 8 8 8 7 6
7 6 5 4 4 3 3 5 16 14 17 15 18 10 3 16 20 21 22 22 23 19 7 7 8 8 9 9 10 10 9 11 10 10 9 9 10 10 9 9 8 8 8
5 5 3 4 3 5 6 6 4 6 16 15 16 18 19 17 17 17 19 17 19 13 6 6 6 7 8 9 9 8 9 9 11 10 10 10 10 10 10 9 9 8 8
3 5 3 3 3 4 4 3 3 3 3 4 8 13 17 18 17 17 17 11 4 6 3 2 3 6 6 7 8 8 9 9 9 9 9 9 9 9 10 9 9 9 9
2 3 2 2 2 2 2 2 2 3 3 2 3 5 8 12 14 12 10 2 2 2 2 3 2 2 4 5 5 6 7 8 8 8 8 9 9 9 9 10 9 13 11
4 5 4 2 1 2 2 2 2 3 3 2 2 2 4 3 3 3 1 1 1 2 2 3 3 2 2 3 4 3 5 7 8 7 8 8 9 9 9 10 9 9 9
2 2 3 2 1 1 0 1 2 2 2 2 3 3 4 1 3 2 2 2 2 3 3 3 3 3 3 3 3 3 4 4 6 7 7 8 8 9 9 9 9 8 8
2 2 1 0 1 1 2 1 1 2 2 2 3 3 5 1 2 3 3 3 3 6 8 5 3 4 4 4 3 2 3 4 4 6 7 8 8 8 8 9 8 8 8
1 2 2 2 1 2 2 2 2 3 3 3 4 4 3 3 3 3 4 4 7 8 8 7 7 7 10 10 9 6 3 4 6 8 6 7 8 7 8 8 8 7 7
2 1 2 2 1 2 2 3 3 5 4 4 4 4 4 4 4 5 4 7 9 10 9 9 9 10 10 12 8 10 11 13 15 14 11 6 7 8 8 8 8 8 7
2 2 2 2 2 3 3 4 4 4 4 4 4 3 4 5 5 5 4 10 11 9 10 9 10 10 11 10 10 12 11 15 17 16 13 9 6 8 7 7 7 7 6
3 2 2 2 3 4 4 4 3 3 4 4 4 5 5 6 6 6 4 7 7 10 11 12 12 11 11 9 12 10 10 13 15 15 16 9 4 5 5 6 9 6 6
Wind_Direction
10 17 9 7 11 16 14 16 28 41 59 63 50 55 58 57 54 62 53 48 44 59 54 19 12 47 46 26 6 13 308 250 243 246 246 250 238 216 258 257 248 230 223
5 18 22 12 17 21 13 15 41 46 51 59 50 60 55 52 53 51 45 36 49 41 50 54 32 36 37 19 12 18 354 333 340 299 252 211 237 237 233 256 243 240 235
6 15 17 11 17 26 22 21 49 53 52 54 52 54 55 56 55 59 52 34 51 38 44 43 32 34 31 15 9 9 3 335 327 309 327 284 258 256 241 234 229 230 234
14 19 15 16 23 27 29 30 38 46 52 57 53 56 52 51 55 57 65 55 53 47 45 45 34 30 26 15 16 8 3 355 344 337 336 315 316 264 230 239 231 216 227
20 22 15 20 20 31 37 37 41 43 50 49 50 53 49 48 42 39 53 50 46 46 41 38 34 29 26 25 20 15 12 3 5 355 341 353 345 0 342 330 265 235 233
28 27 19 28 29 28 31 35 39 42 43 44 46 48 48 45 48 44 51 51 48 46 41 35 33 27 21 17 20 25 26 8 12 348 345 353 339 333 330 338 313 320 276
33 31 28 31 33 36 38 37 39 38 38 44 43 46 47 44 41 43 44 48 48 46 38 33 30 25 20 17 10 21 22 18 12 352 345 350 328 341 329 324 324 307 289
38 37 33 33 33 35 39 39 39 41 39 33 36 36 37 36 38 38 39 38 40 40 38 31 27 24 19 18 9 21 20 10 2 360 353 334 337 328 327 321 305 290 287
45 44 38 36 38 36 37 36 35 43 45 45 40 37 35 30 32 35 30 30 31 30 30 21 24 22 14 15 16 15 13 8 352 354 349 343 344 338 336 337 344 333 328
35 51 51 46 46 42 37 37 38 45 46 44 42 37 35 31 32 31 34 25 19 17 22 18 12 21 17 15 13 10 6 358 353 348 350 350 349 340 346 349 327 334 326
44 40 57 64 47 42 47 46 51 49 50 41 37 26 26 28 27 31 36 30 24 19 22 12 4 12 15 14 12 11 5 349 347 353 353 356 356 346 337 342 336 325 311
35 44 48 47 59 45 34 48 45 45 45 44 42 39 32 14 32 29 30 35 28 25 20 9 4 13 12 12 12 7 0 356 353 351 354 1 357 346 334 330 326 307 295
55 54 53 60 51 51 45 46 51 50 51 47 43 35 22 15 19 32 23 25 25 23 21 20 15 13 9 3 9 7 0 1 353 354 352 349 337 327 318 332 328 329 318
51 44 41 39 36 32 31 36 48 53 54 52 46 29 358 1 23 34 24 8 23 18 14 13 5 11 3 356 4 6 356 353 349 345 342 339 329 338 338 337 335 333 323
55 47 33 38 28 22 25 15 53 90 108 85 11 354 16 13 21 35 29 19 31 18 4 3 12 14 9 4 3 357 358 356 356 350 344 335 337 339 343 334 335 330 332
58 38 16 3 8 16 20 29 41 48 52 67 44 40 354 18 22 27 26 22 25 20 20 16 13 12 5 358 356 353 356 352 346 340 340 341 340 339 338 336 332 336 332
56 48 25 15 17 36 35 33 26 6 37 45 41 30 25 20 23 26 26 26 25 28 29 14 8 8 360 356 351 348 342 340 339 341 341 343 341 335 333 335 336 334 337
42 48 40 20 33 43 37 23 27 35 3 350 8 26 17 14 17 18 23 26 19 25 23 3 359 2 353 352 347 343 339 340 343 341 337 338 336 332 331 338 340 340 333
46 36 16 35 54 55 36 20 29 24 19 352 344 349 349 4 21 20 29 54 351 334 339 352 313 335 337 341 330 337 333 338 335 334 333 332 333 336 329 333 341 340 339
23 353 32 46 44 30 24 29 28 21 9 354 338 290 318 358 4 331 303 293 319 295 300 300 302 288 298 303 305 311 332 342 338 335 333 328 329 328 323 331 335 338 335
4 340 9 62 43 266 17 43 33 22 341 319 286 259 292 49 294 301 309 302 269 282 282 282 292 277 273 286 301 325 324 318 331 326 326 323 325 323 323 325 330 336 334
10 329 314 163 259 12 355 10 345 317 293 292 289 286 305 292 289 287 288 281 260 273 280 269 280 291 281 288 281 303 313 313 313 325 322 318 318 316 318 325 329 331 335
337 332 310 299 313 334 354 317 288 278 272 275 277 282 285 274 278 277 271 265 274 281 282 300 297 303 290 288 277 285 276 302 302 304 305 313 315 317 317 322 323 327 332
276 310 286 293 293 306 278 278 280 275 272 272 278 283 278 272 269 270 269 269 263 263 261 286 295 297 296 299 278 285 295 320 325 320 307 297 307 317 323 324 326 324 325
230 280 317 296 290 275 282 276 279 275 280 280 286 279 286 280 269 264 259 266 259 243 261 268 275 296 313 299 258 284 303 325 334 340 335 312 301 314 319 322 322 323 327
271 289 290 304 287 275 263 268 277 284 291 292 295 291 279 290 289 280 264 265 260 244 253 257 272 288 296 274 263 292 307 328 338 345 351 336 324 326 327 327 332 332 324